This is the latest recevied weather packets stored in our database for station/object N4WFF. If no packets are shown the sender has not sent any weather packets the latest 1 day(s).
| Time | Temp. | Humidity | Pressure | Rain* | Wind** | Luminosity | Snow |
|---|---|---|---|---|---|---|---|
| 1778015455 | 26.67° C | 59% | 1013.5 hPa | 0 mm | 1.79 m/s, 220° | 223 W/m² | - |
| 1778015155 | 27.22° C | 57% | 1013.4 hPa | 0 mm | 2.68 m/s, 228° | 216 W/m² | - |
| 1778014857 | 27.22° C | 55% | 1013.5 hPa | 0 mm | 2.24 m/s, 216° | 390 W/m² | - |
| 1778014557 | 27.22° C | 56% | 1013.4 hPa | 0 mm | 2.68 m/s, 212° | 526 W/m² | - |
| 1778014256 | 26.67° C | 56% | 1013.4 hPa | 0 mm | 1.79 m/s, 211° | 783 W/m² | - |
| 1778013956 | 26.67° C | 58% | 1013.5 hPa | 0 mm | 2.24 m/s, 241° | 463 W/m² | - |
| 1778013656 | 26.67° C | 57% | 1013.5 hPa | 0 mm | 1.79 m/s, 171° | 430 W/m² | - |
| 1778013355 | 26.67° C | 57% | 1013.8 hPa | 0 mm | 1.79 m/s, 175° | 273 W/m² | - |
| 1778013055 | 26.67° C | 58% | 1013.9 hPa | 0 mm | 2.68 m/s, 197° | 486 W/m² | - |
| 1778012756 | 27.22° C | 56% | 1014 hPa | 0 mm | 2.24 m/s, 205° | 274 W/m² | - |
| 1778012455 | 27.22° C | 56% | 1013.9 hPa | 0 mm | 3.13 m/s, 242° | 842 W/m² | - |
| 1778012156 | 26.67° C | 55% | 1013.9 hPa | 0 mm | 2.68 m/s, 236° | 811 W/m² | - |
| 1778011856 | 26.67° C | 56% | 1013.9 hPa | 0 mm | 1.79 m/s, 228° | 796 W/m² | - |
| 1778011556 | 26.67° C | 57% | 1013.9 hPa | 0 mm | 4.02 m/s, 196° | 815 W/m² | - |
| 1778011255 | 26.67° C | 57% | 1013.9 hPa | 0 mm | 3.58 m/s, 237° | 196 W/m² | - |
| 1778010956 | 26.67° C | 55% | 1013.9 hPa | 0 mm | 2.68 m/s, 211° | 956 W/m² | - |
| 1778010655 | 26.67° C | 56% | 1014.1 hPa | 0 mm | 2.68 m/s, 206° | 903 W/m² | - |
| 1778010356 | 26.67° C | 56% | 1014.2 hPa | 0 mm | 3.13 m/s, 241° | 843 W/m² | - |
| 1778010055 | 26.67° C | 56% | 1014.4 hPa | 0 mm | 1.79 m/s, 230° | 844 W/m² | - |
| 1778009756 | 26.67° C | 56% | 1014.4 hPa | 0 mm | 3.13 m/s, 182° | 860 W/m² | - |
| 1778009455 | 26.67° C | 56% | 1014.5 hPa | 0 mm | 3.58 m/s, 198° | 793 W/m² | - |
| 1778009155 | 26.67° C | 55% | 1014.5 hPa | 0 mm | 2.68 m/s, 232° | 916 W/m² | - |
| 1778008856 | 26.11° C | 58% | 1014.5 hPa | 0 mm | 1.79 m/s, 205° | 911 W/m² | - |
| 1778008555 | 26.11° C | 57% | 1014.6 hPa | 0 mm | 3.13 m/s, 242° | 843 W/m² | - |
| 1778008255 | 26.11° C | 57% | 1014.6 hPa | 0 mm | 3.13 m/s, 202° | 900 W/m² | - |
* Rain latest hour (hover to see other rain measurements)
** Current wind speed in m/s (hover to see current wind gust speed)